Regional Weather Roundup
Issued by NWS

Home | Current Version | Previous Version | Graphics & Text | Print | Product List | Glossary On
Versions: 1 2 3 4 5 6 7 8 9 10 11 12 13 14 15 16 17 18 19 20 21 22 23 24 25 26 27 28 29 30 31 32 33 34 35 36 37 38 39 40 41 42 43 44 45 46 47 48 49 50
000
ASUS43 KFSD 300910
RWRSD

WEATHER ROUNDUP FOR SOUTH DAKOTA
NATIONAL WEATHER SERVICE SIOUX FALLS SD
400 AM CDT THU OCT 30 2014

NOTE: "FAIR" INDICATES FEW OR NO CLOUDS BELOW 12,000 FEET WITH NO
SIGNIFICANT WEATHER AND/OR OBSTRUCTIONS TO VISIBILITY.


SDZ001>005-009-010-012>017-301000-
NORTHWEST AND NORTH CENTRAL SOUTH DAKOTA

CITY           SKY/WX    TMP DP  RH WIND       PRES   REMARKS
BUFFALO          N/A     38  31  76 NW13      30.08R
FAITH            N/A     39  33  79 NW13      30.11R
MOBRIDGE       CLEAR     42  37  82 NW10      30.02R
$$

SDZ012>016-024>037-041>051-057-063-072>074-301000-
SOUTHWEST AND SOUTH CENTRAL SOUTH DAKOTA

CITY           SKY/WX    TMP DP  RH WIND       PRES   REMARKS
RAPID CTY ARPT CLEAR     42  32  67 NW12      30.14S
PIERRE         CLEAR     48  39  71 NW16      30.04R
CUSTER         CLEAR     42  25  50 CALM      30.19R
ELLSWORTH AFB  CLEAR     38  30  74 NW8       30.14R
PHILIP         CLEAR     38  32  79 SW12      30.11R
PINE RIDGE     CLEAR     36  29  75 W3        30.19R
SPEARFISH      FAIR      46  32  57 W10       30.20R
WINNER         FAIR      46  33  60 W14       30.05R
$$

SDZ004>011-016>023-039-040-301000-
NORTHEAST SOUTH DAKOTA

CITY           SKY/WX    TMP DP  RH WIND       PRES   REMARKS
ABERDEEN       PTCLDY    38  34  85 CALM      29.98S
WATERTOWN      CLOUDY    43  34  70 CALM      29.97R
SISSETON         N/A     38  38 100 S7        29.98S
$$

SDZ017-020-022-023-036>040-048>070-301000-
SOUTHEAST SOUTH DAKOTA

CITY           SKY/WX    TMP DP  RH WIND       PRES   REMARKS
SIOUX FALLS    CLEAR     44  32  62 S6        29.96F
HURON          CLEAR     39  30  70 NW8       29.98R
CHAMBERLAIN    CLEAR     39  32  74 W8        30.03R
MITCHELL       CLEAR     41  33  73 W8        29.99R
YANKTON        CLEAR     36  28  75 N5        29.98S
$$

ABBREVIATIONS USED IN REMARKS
   TC - TEMPERATURE IN CELSIUS
  WCI - WIND CHILL INDEX
   HX - HEAT INDEX
  VSB - VISIBILITY




USA.gov is the U.S. government's official web portal to all federal, state and local government web resources and services.